Location: Hains Lake
(37.8540°N, 99.8578°W)
Time: 03:30:26
(UTC+00:00)

Tiros 1 despin weight - Pass Details

Date: 21 April 2021
Orbit: 593 x 642 km, 48.2° (Epoch: 07 May)

Event Time Altitude Azimuth Distance (km) Brightness Sun altitude
Rises 12:06:41 0° 259° (W) 2,912 ? 1.3°
Reaches altitude 10° 12:09:09 10° 268° (W) 1,999 ? 1.8°
Maximum altitude 12:13:27 39° 337° (NNW) 942 ? 2.6°
Drops below altitude 10° 12:17:43 10° 46° (NE) 1,974 ? 3.4°
Sets 12:20:08 0° 55° (NE) 2,872 ? 3.9°
